Location: Abyssinia Baptist Church
(32.7840°N, 96.7578°W)
Time: 08:10:31
(UTC+00:00)

Meteor 2-6 Rocket - Visible Passes

Search period start: 27 June 2022 00:00
Search period end: 07 July 2022 00:00
Orbit: 807 x 913 km, 81.3° (Epoch: 26 June)

Date Brightness Start Highest point End Pass type
(mag) Time Alt. Az. Time Alt. Az. Time Alt. Az.
27 Jun 4.8 08:53:06 10° N 08:58:56 57° E 09:02:59 20° SSE visible
27 Jun 5.9 10:38:10 10° NW 10:41:24 15° W 10:44:37 10° WSW visible
28 Jun 4.9 08:43:56 10° N 08:49:45 55° E 08:53:06 25° SSE visible
28 Jun 5.9 10:28:52 10° NW 10:32:14 16° W 10:35:15 11° WSW visible
29 Jun 4.9 08:34:46 10° N 08:40:34 53° E 08:43:17 30° SE visible
29 Jun 5.9 10:19:36 10° NW 10:23:04 16° W 10:25:26 13° WSW visible
30 Jun 4.9 08:25:37 10° N 08:31:22 52° E 08:33:33 34° SE visible
30 Jun 5.8 10:10:20 10° NW 10:13:54 17° W 10:15:43 15° WSW visible
01 Jul 4.9 08:16:27 10° N 08:22:11 50° E 08:23:52 39° SE visible
01 Jul 5.8 10:01:05 10° NW 10:04:45 17° W 10:06:01 16° WSW visible
02 Jul 5.0 08:07:18 10° N 08:12:59 49° ENE 08:14:13 42° ESE visible
02 Jul 5.8 09:51:49 10° NW 09:55:34 18° W 09:56:23 17° W visible
03 Jul 5.0 07:58:09 10° N 08:03:48 47° ENE 08:04:37 44° ESE visible
03 Jul 5.7 09:42:34 10° NW 09:46:24 18° W 09:46:49 18° W visible
04 Jul 5.0 07:48:59 10° N 07:54:37 45° ENE 07:55:05 45° E visible
04 Jul 5.8 09:33:19 10° NW 09:37:14 19° W 09:37:15 19° W visible
05 Jul 5.0 07:39:50 10° N 07:45:25 44° ENE 07:45:34 44° E visible
05 Jul 5.8 09:24:04 10° NW 09:27:45 19° W 09:27:45 19° W visible
06 Jul 5.1 07:30:41 10° N 07:36:05 43° ENE 07:36:05 43° ENE visible
06 Jul 5.8 09:14:50 10° NW 09:18:16 20° WNW 09:18:16 20° WNW visible
